, AK

(GMT )
Deadhorse

Weather History for PASC - February, 2012

Change the Weather History Date:

Thursday, February 2, 2012

  Actual Average Record
Temperature  
Mean Temperature -27 °F -  
Max Temperature -18 °F -7 °F 25 °F (2017)
Min Temperature -36 °F -20 °F -54 °F (1991)
Degree Days  
Heating Degree Days 92    
Moisture  
Dew Point -29 °F    
Average Humidity 74    
Maximum Humidity 76    
Minimum Humidity 69    
Precipitation  
Precipitation 0.00 in - - ()
Sea Level Pressure  
Sea Level Pressure 29.55 in    
Wind  
Wind Speed 14 mph (ENE)    
Max Wind Speed 20 mph    
Max Gust Speed -    
Visibility 4 miles    
Events Snow    
Averages and records for this station are not official NWS values.
T = Trace of Precipitation, MM = Missing Value Source: NWS Daily Summary

Daily Weather History Graph

Daily Weather History Graph

Search for Another Location

Airport or City:

Trip Planner

Search our weather history database for the weather conditions in past years. The results will help you decide how hot, cold, wet, or windy it might be!

Date:

Astronomy

Feb. 02, 2012 Rise Set
Actual Time 10:37 AM AKST 3:38 PM AKST
Civil Twilight 9:12 AM AKST 5:04 PM AKST
Nautical Twilight 7:53 AM AKST 6:23 PM AKST
Astronomical Twilight 6:41 AM AKST 7:34 PM AKST
Moon No Moon Rise No Moon Set
Length of Visible Light 7h 52m
Length of Day
5h 00m
Waxing Gibbous, 75% of the Moon is Illuminated
Feb 2
Waxing Gibbous
Feb 7
Full
Feb 14
Last Quarter
Feb 21
New
Feb 29
First Quarter

Hourly Weather History & Observations

Time (AKST) Temp. Windchill Dew Point Humidity Pressure Visibility Wind Dir Wind Speed Gust Speed Precip Events Conditions
12:44 AM -36.4 °F -60.1 °F - N/A% 29.59 in 2.0 mi NNE 9.2 mph - N/A   Overcast
12:53 AM -35.0 °F -59.7 °F - N/A% 29.60 in 2.0 mi NNE 10.4 mph - N/A   Overcast
1:21 AM -32.8 °F -57.0 °F - N/A% 29.58 in 3.0 mi NNE 10.4 mph - N/A   Overcast
1:40 AM -31.0 °F -54.7 °F - N/A% 29.56 in 3.0 mi NNE 10.4 mph - N/A   Overcast
1:53 AM -29.9 °F -54.6 °F - N/A% 29.57 in 3.0 mi NNE 11.5 mph - N/A   Overcast
1:55 AM -29.2 °F -54.8 °F - N/A% 29.56 in 3.0 mi NE 12.7 mph - N/A   Overcast
2:04 AM -29.2 °F -55.8 °F - N/A% 29.56 in 2.5 mi NE 13.8 mph - N/A   Overcast
2:39 AM -27.4 °F -54.5 °F -34.6 °F 69% 29.54 in 2.0 mi NE 15.0 mph - N/A   Overcast
2:53 AM -27.0 °F -54.9 °F -34.1 °F 69% 29.55 in 2.0 mi NE 16.1 mph - N/A Snow Light Snow
3:35 AM -25.6 °F -54.6 °F -32.8 °F 69% 29.53 in 1.0 mi NE 18.4 mph - N/A Snow Light Snow
3:53 AM -25.1 °F -52.3 °F -31.0 °F 74% 29.54 in 1.0 mi NE 16.1 mph - N/A Snow Light Snow
4:45 AM -23.8 °F -51.5 °F -29.2 °F 76% 29.50 in 0.8 mi NE 17.3 mph - N/A Snow Light Snow
4:47 AM -23.8 °F -52.2 °F -29.2 °F 76% 29.50 in 0.8 mi NE 18.4 mph - N/A Snow Light Snow
4:53 AM -24.0 °F -53.2 °F -29.9 °F 74% 29.52 in 0.8 mi NE 19.6 mph - N/A Snow Light Snow
5:05 AM -23.8 °F -50.7 °F -29.2 °F 76% 29.50 in 1.0 mi NE 16.1 mph - N/A Snow Light Snow
5:24 AM -23.8 °F -51.5 °F -29.2 °F 76% 29.50 in 1.5 mi NE 17.3 mph - N/A Snow Light Snow
5:53 AM -24.0 °F -51.7 °F -29.9 °F 74% 29.51 in 1.5 mi NE 17.3 mph - N/A Snow Light Snow
6:18 AM -23.8 °F -52.2 °F -29.2 °F 76% 29.50 in 1.8 mi NE 18.4 mph - N/A Snow Light Snow
6:53 AM -23.1 °F -52.0 °F -29.0 °F 74% 29.51 in 1.5 mi NE 19.6 mph - N/A Snow Light Snow
7:06 AM -23.8 °F -52.2 °F -29.2 °F 76% 29.49 in 1.5 mi NE 18.4 mph - N/A Snow Light Snow
7:53 AM -23.1 °F -50.5 °F -29.0 °F 74% 29.50 in 1.5 mi NE 17.3 mph - N/A Snow Light Snow
8:53 AM -23.1 °F -49.8 °F -29.0 °F 74% 29.51 in 1.5 mi ENE 16.1 mph - N/A Snow Light Snow
9:01 AM -23.8 °F -48.9 °F -29.2 °F 76% 29.50 in 2.0 mi ENE 13.8 mph - N/A Snow Light Snow
9:53 AM -23.1 °F -47.1 °F -29.0 °F 74% 29.52 in 4.0 mi ENE 12.7 mph - N/A Snow Light Snow
10:53 AM -23.1 °F -49.8 °F -29.0 °F 74% 29.54 in 3.0 mi ENE 16.1 mph - N/A Snow Blowing Snow
11:53 AM -22.0 °F -49.1 °F -29.0 °F 70% 29.54 in 3.0 mi ENE 17.3 mph - N/A Snow Light Snow
12:35 PM -22.0 °F -49.1 °F -27.4 °F 76% 29.53 in 3.0 mi ENE 17.3 mph - N/A Snow Light Snow
12:49 PM -22.0 °F -48.4 °F -27.4 °F 76% 29.53 in 3.0 mi ENE 16.1 mph - N/A Snow Blowing Snow
12:53 PM -22.0 °F -48.4 °F -27.9 °F 74% 29.55 in 3.0 mi ENE 16.1 mph - N/A Snow Blowing Snow
1:53 PM -22.0 °F -47.5 °F -27.9 °F 74% 29.56 in 3.0 mi ENE 15.0 mph - N/A Snow Blowing Snow
2:53 PM -23.1 °F -46.0 °F -29.0 °F 74% 29.57 in 6.0 mi ENE 11.5 mph - N/A Snow Blowing Snow
3:53 PM -22.0 °F -35.6 °F -27.9 °F 74% 29.58 in 5.0 mi East 4.6 mph - N/A Snow Blowing Snow
4:53 PM -22.0 °F -35.6 °F -27.9 °F 74% 29.58 in 10.0 mi ESE 4.6 mph - N/A   Overcast
5:15 PM -22.0 °F -35.6 °F -27.4 °F 76% 29.57 in 8.0 mi East 4.6 mph - N/A   Overcast
5:24 PM -22.0 °F -35.6 °F -27.4 °F 76% 29.57 in 10.0 mi East 4.6 mph - N/A   Overcast
5:53 PM -20.9 °F -44.3 °F -27.9 °F 70% 29.60 in 10.0 mi East 12.7 mph - N/A   Overcast
6:53 PM -20.9 °F -45.3 °F -27.0 °F 73% 29.58 in 7.0 mi ENE 13.8 mph - N/A Snow Light Snow
7:53 PM -20.0 °F -44.1 °F -27.0 °F 70% 29.61 in 5.0 mi ENE 13.8 mph - N/A Snow Light Snow
8:53 PM -20.0 °F -45.0 °F -27.0 °F 70% 29.59 in 10.0 mi East 15.0 mph - N/A   Overcast
9:41 PM -20.2 °F -46.8 °F -27.4 °F 69% 29.57 in 2.5 mi ENE 17.3 mph - N/A Snow Light Snow
9:53 PM -20.0 °F -46.6 °F -26.0 °F 74% 29.57 in 2.5 mi ENE 17.3 mph - N/A Snow Light Snow
10:32 PM -20.2 °F -46.0 °F -25.6 °F 76% 29.58 in 4.0 mi East 16.1 mph - N/A   Overcast
10:53 PM -18.9 °F -44.4 °F -26.0 °F 70% 29.59 in 10.0 mi ENE 16.1 mph - N/A   Overcast
11:53 PM -18.9 °F -45.9 °F -25.1 °F 74% 29.59 in 8.0 mi East 18.4 mph - N/A   Overcast